TimePST,TemperatureF,Dew PointF,Humidity,Sea Level PressureIn,VisibilityMPH,Wind Direction,Wind SpeedMPH,Gust SpeedMPH,PrecipitationIn,Events,Conditions,WindDirDegrees,DateUTC
12:35 AM,32.0,19.4,60,30.16,10.0,ESE,4.6,-,N/A,,Clear,120,2012-12-11 08:35:00
12:55 AM,32.0,19.4,60,30.15,10.0,East,3.5,-,N/A,,Clear,100,2012-12-11 08:55:00
1:15 AM,32.0,19.4,60,30.15,10.0,Calm,Calm,-,N/A,,Clear,0,2012-12-11 09:15:00
1:35 AM,30.2,19.4,64,30.14,10.0,SE,8.1,-,N/A,,Clear,130,2012-12-11 09:35:00
1:55 AM,28.4,17.6,64,30.15,10.0,Calm,Calm,-,N/A,,Clear,0,2012-12-11 09:55:00
2:15 AM,32.0,19.4,60,30.14,10.0,Calm,Calm,-,N/A,,Clear,0,2012-12-11 10:15:00
2:35 AM,28.4,17.6,64,30.14,10.0,Calm,Calm,-,N/A,,Clear,0,2012-12-11 10:35:00
2:55 AM,28.4,17.6,64,30.14,10.0,ESE,3.5,-,N/A,,Clear,110,2012-12-11 10:55:00
3:15 AM,28.4,17.6,64,30.14,10.0,East,4.6,-,N/A,,Clear,100,2012-12-11 11:15:00
3:35 AM,28.4,17.6,64,30.13,10.0,Calm,Calm,-,N/A,,Clear,0,2012-12-11 11:35:00
3:55 AM,32.0,17.6,55,30.13,10.0,ESE,4.6,-,N/A,,Clear,110,2012-12-11 11:55:00
4:15 AM,28.4,17.6,64,30.12,10.0,Calm,Calm,-,N/A,,Clear,0,2012-12-11 12:15:00
4:35 AM,28.4,17.6,64,30.11,10.0,Calm,Calm,-,N/A,,Clear,0,2012-12-11 12:35:00
4:55 AM,28.4,17.6,64,30.11,10.0,Calm,Calm,-,N/A,,Clear,0,2012-12-11 12:55:00
5:15 AM,26.6,17.6,69,30.11,10.0,ESE,4.6,-,N/A,,Clear,110,2012-12-11 13:15:00
5:35 AM,28.4,17.6,64,30.11,10.0,Calm,Calm,-,N/A,,Clear,0,2012-12-11 13:35:00
5:55 AM,28.4,17.6,64,30.11,10.0,Calm,Calm,-,N/A,,Clear,0,2012-12-11 13:55:00
6:15 AM,28.4,17.6,64,30.11,10.0,Calm,Calm,-,N/A,,Clear,0,2012-12-11 14:15:00
6:55 AM,26.6,17.6,69,30.12,10.0,Calm,Calm,-,N/A,,Clear,0,2012-12-11 14:55:00
7:15 AM,28.4,17.6,64,30.11,10.0,ESE,3.5,-,N/A,,Clear,120,2012-12-11 15:15:00
7:35 AM,32.0,19.4,60,30.11,10.0,Calm,Calm,-,N/A,,Clear,0,2012-12-11 15:35:00
7:55 AM,32.0,19.4,60,30.11,10.0,Calm,Calm,-,N/A,,Clear,0,2012-12-11 15:55:00
8:15 AM,37.4,19.4,48,30.11,10.0,Calm,Calm,-,N/A,,Clear,0,2012-12-11 16:15:00
8:35 AM,41.0,21.2,45,30.11,9.0,Calm,Calm,-,N/A,,Clear,0,2012-12-11 16:35:00
8:55 AM,46.4,23.0,40,30.11,8.0,ESE,4.6,-,N/A,,Clear,110,2012-12-11 16:55:00
9:15 AM,50.0,23.0,35,30.11,10.0,Calm,Calm,-,N/A,,Clear,0,2012-12-11 17:15:00
9:35 AM,57.2,23.0,27,30.11,10.0,ESE,8.1,-,N/A,,Clear,110,2012-12-11 17:35:00
9:55 AM,57.2,21.2,25,30.10,10.0,East,9.2,-,N/A,,Clear,100,2012-12-11 17:55:00
10:15 AM,59.0,21.2,23,30.10,9.0,ESE,8.1,-,N/A,,Clear,110,2012-12-11 18:15:00
10:35 AM,59.0,21.2,23,30.09,9.0,East,8.1,-,N/A,,Clear,90,2012-12-11 18:35:00
10:55 AM,60.8,21.2,22,30.08,10.0,East,4.6,-,N/A,,Clear,90,2012-12-11 18:55:00
11:15 AM,62.6,19.4,19,30.07,10.0,Calm,Calm,-,N/A,,Clear,0,2012-12-11 19:15:00
11:35 AM,62.6,19.4,19,30.06,10.0,Calm,Calm,-,N/A,,Clear,0,2012-12-11 19:35:00
11:55 AM,64.4,17.6,16,30.04,10.0,WSW,9.2,-,N/A,,Clear,240,2012-12-11 19:55:00
12:15 PM,66.2,21.2,18,30.03,10.0,NW,11.5,-,N/A,,Clear,310,2012-12-11 20:15:00
12:35 PM,64.4,21.2,19,30.02,9.0,NW,15.0,-,N/A,,Clear,310,2012-12-11 20:35:00
12:55 PM,64.4,21.2,19,30.01,10.0,NW,12.7,-,N/A,,Clear,310,2012-12-11 20:55:00
1:15 PM,64.4,21.2,19,30.01,10.0,NW,12.7,-,N/A,,Clear,310,2012-12-11 21:15:00
1:35 PM,62.6,23.0,22,30.00,10.0,NW,12.7,17.3,N/A,,Clear,310,2012-12-11 21:35:00
1:55 PM,62.6,21.2,20,29.99,10.0,NW,12.7,-,N/A,,Clear,310,2012-12-11 21:55:00
2:15 PM,62.6,21.2,20,29.99,10.0,WNW,11.5,-,N/A,,Clear,300,2012-12-11 22:15:00
2:35 PM,62.6,21.2,20,29.98,10.0,NW,10.4,17.3,N/A,,Clear,310,2012-12-11 22:35:00
2:55 PM,60.8,23.0,23,29.98,10.0,NW,12.7,-,N/A,,Clear,320,2012-12-11 22:55:00
3:15 PM,59.0,23.0,25,29.97,10.0,WNW,9.2,-,N/A,,Clear,300,2012-12-11 23:15:00
3:35 PM,59.0,23.0,25,29.97,10.0,WNW,12.7,16.1,N/A,,Clear,300,2012-12-11 23:35:00
3:55 PM,57.2,23.0,27,29.97,10.0,WNW,11.5,-,N/A,,Clear,300,2012-12-11 23:55:00
4:15 PM,55.4,23.0,29,29.97,10.0,NW,10.4,-,N/A,,Clear,310,2012-12-12 00:15:00
4:35 PM,53.6,23.0,30,29.97,10.0,WNW,10.4,-,N/A,,Clear,300,2012-12-12 00:35:00
4:55 PM,51.8,23.0,33,29.98,10.0,West,11.5,-,N/A,,Clear,280,2012-12-12 00:55:00
5:15 PM,51.8,23.0,33,29.97,10.0,WNW,10.4,-,N/A,,Clear,290,2012-12-12 01:15:00
5:35 PM,53.6,23.0,30,29.97,10.0,WNW,11.5,-,N/A,,Clear,300,2012-12-12 01:35:00
5:55 PM,53.6,21.2,28,29.97,10.0,WNW,10.4,-,N/A,,Clear,300,2012-12-12 01:55:00
6:15 PM,51.8,21.2,30,29.97,10.0,West,6.9,-,N/A,,Clear,260,2012-12-12 02:15:00
6:35 PM,46.4,21.2,37,29.97,10.0,West,8.1,-,N/A,,Clear,260,2012-12-12 02:35:00
6:55 PM,46.4,21.2,37,29.97,10.0,West,4.6,-,N/A,,Clear,270,2012-12-12 02:55:00
7:15 PM,44.6,21.2,39,29.97,10.0,West,6.9,-,N/A,,Clear,280,2012-12-12 03:15:00
7:35 PM,44.6,21.2,39,29.97,8.0,West,5.8,-,N/A,,Clear,280,2012-12-12 03:35:00
7:55 PM,44.6,19.4,37,29.97,10.0,West,6.9,-,N/A,,Clear,280,2012-12-12 03:55:00
8:15 PM,44.6,21.2,39,29.96,10.0,WNW,3.5,-,N/A,,Clear,290,2012-12-12 04:15:00
8:35 PM,37.4,21.2,52,29.96,10.0,ESE,3.5,-,N/A,,Clear,120,2012-12-12 04:35:00
8:55 PM,37.4,19.4,48,29.96,10.0,ESE,4.6,-,N/A,,Clear,120,2012-12-12 04:55:00
9:15 PM,37.4,19.4,48,29.95,10.0,Calm,Calm,-,N/A,,Clear,0,2012-12-12 05:15:00
9:35 PM,37.4,19.4,48,29.95,10.0,East,3.5,-,N/A,,Clear,80,2012-12-12 05:35:00
9:55 PM,37.4,19.4,48,29.95,10.0,Calm,Calm,-,N/A,,Clear,0,2012-12-12 05:55:00
10:15 PM,37.4,19.4,48,29.94,10.0,ESE,3.5,-,N/A,,Clear,110,2012-12-12 06:15:00
10:35 PM,35.6,19.4,52,29.94,10.0,East,3.5,-,N/A,,Clear,80,2012-12-12 06:35:00
10:55 PM,35.6,21.2,56,29.94,10.0,Calm,Calm,-,N/A,,Clear,0,2012-12-12 06:55:00
11:15 PM,32.0,19.4,60,29.93,10.0,SE,4.6,-,N/A,,Clear,130,2012-12-12 07:15:00
11:35 PM,32.0,19.4,60,29.93,10.0,Calm,Calm,-,N/A,,Clear,0,2012-12-12 07:35:00
11:55 PM,32.0,19.4,60,29.92,10.0,Calm,Calm,-,N/A,,Clear,0,2012-12-12 07:55:00